TimeCST,TemperatureF,Dew PointF,Humidity,Sea Level PressureIn,VisibilityMPH,Wind Direction,Wind SpeedMPH,Gust SpeedMPH,PrecipitationIn,Events,Conditions,WindDirDegrees,DateUTC
12:58 AM,16.7,0.9,50,30.31,10.0,SSE,8.1,-,N/A,,Clear,150,2014-01-30 06:58:00
2:58 AM,14.9,-0.0,52,30.31,10.0,SSE,4.6,-,N/A,,Clear,160,2014-01-30 08:58:00
3:58 AM,14.4,-0.2,52,30.28,10.0,SSE,5.8,-,N/A,,Clear,150,2014-01-30 09:58:00
4:58 AM,14.0,-1.3,51,30.28,10.0,South,3.5,-,N/A,,Clear,170,2014-01-30 10:58:00
5:58 AM,14.2,-0.9,51,30.30,10.0,SSE,4.6,-,N/A,,Clear,150,2014-01-30 11:58:00
6:58 AM,13.1,-0.9,54,30.27,10.0,SSE,5.8,-,N/A,,Clear,160,2014-01-30 12:58:00
7:58 AM,18.5,-0.2,44,30.27,10.0,SSE,10.4,-,N/A,,Clear,160,2014-01-30 13:58:00
8:58 AM,22.8,1.4,40,30.29,10.0,SSW,10.4,-,N/A,,Clear,200,2014-01-30 14:58:00
9:58 AM,26.6,1.9,35,30.26,10.0,South,11.5,17.3,N/A,,Clear,190,2014-01-30 15:58:00
10:58 AM,30.4,1.8,30,30.20,10.0,South,15.0,21.9,N/A,,Scattered Clouds,190,2014-01-30 16:58:00
11:58 AM,35.6,1.9,24,30.15,10.0,SSW,16.1,20.7,N/A,,Clear,200,2014-01-30 17:58:00
12:58 PM,38.1,1.2,21,30.10,10.0,SSW,17.3,23.0,N/A,,Clear,210,2014-01-30 18:58:00
1:26 PM,39.2,-0.4,19,30.06,10.0,South,12.7,23.0,N/A,,Clear,180,2014-01-30 19:26:00
1:58 PM,38.5,0.3,20,30.06,10.0,South,13.8,21.9,N/A,,Clear,190,2014-01-30 19:58:00
2:58 PM,41.0,0.5,18,30.05,10.0,SSW,13.8,18.4,N/A,,Clear,200,2014-01-30 20:58:00
3:58 PM,41.4,-1.8,16,30.04,10.0,SSW,15.0,23.0,N/A,,Clear,200,2014-01-30 21:58:00
4:58 PM,39.6,-0.6,19,30.05,10.0,South,4.6,-,N/A,,Clear,190,2014-01-30 22:58:00
5:58 PM,37.8,-0.9,20,30.05,10.0,South,5.8,-,N/A,,Clear,180,2014-01-30 23:58:00
6:58 PM,36.7,0.3,22,30.05,10.0,South,5.8,-,N/A,,Clear,170,2014-01-31 00:58:00
7:58 PM,35.4,0.3,23,30.05,10.0,South,8.1,-,N/A,,Clear,180,2014-01-31 01:58:00
8:58 PM,34.7,1.2,24,30.06,10.0,SSW,5.8,-,N/A,,Clear,200,2014-01-31 02:58:00
9:58 PM,32.9,0.7,25,30.09,10.0,SSW,2.3,-,N/A,,Clear,210,2014-01-31 03:58:00
10:58 PM,32.0,1.6,27,30.09,10.0,South,5.8,-,N/A,,Clear,190,2014-01-31 04:58:00
11:58 PM,32.0,1.4,27,30.08,10.0,South,5.8,-,N/A,,Clear,180,2014-01-31 05:58:00